www.pogodaiklimat.ru

Погода и климат >> Архив погоды >> Гана >> Wa


ПОГОДА в Wa

  • Прогноз погоды в Wa
  • Монитор погоды в Wa
  • Климат города

АРХИВ ПОГОДЫ в Wa

Время (UTC), дата Ветер
(напр.,м/с)
 
Видим.   Явления Облачность Т
(С)
Тd
(С)
f
(%)
Тe
(С)
Тes
(С)
Комфортность P
(гПа)
Po
(гПа)
Тmin
(С)
Tmax
(С)
R
(мм)
R24
(мм)
S
(см)
09 19.09 ЮЗ 2 13 км 6/0
[Cs]
+28.0 +23.4 76 +38 +46 очень
душно
1014.3 1014.0
12 19.09 ЮВ 2 13 км 6/6 400 м
[Cu Sc]
+32.5 +23.8 60 +44 +53 опасность
перегрева
1013.0 1013.0
18 19.09 ЮЗ 2 13 км 5/3 400 м
[Sc Ci sp]
+32.5 +23.0 57 +43 +43 опасность
перегрева
1010.0 1010.0 +35.0
21 19.09 штиль 0 13 км 5/0
[Ci sp]
+30.0 +24.1 71 +42 +42 опасность
перегрева
1011.6 1012.0
09 20.09 ЮЗ 2 12 км 5/1 480 м
[Cu hum Ac trans]
+29.0 +23.8 74 +40 +47 очень
душно
1013.1 1013.0
12 20.09 ЮЗ 2 12 км 8/8 400 м
[Cu Sc]
+32.5 +24.5 63 +45 +49 опасность
перегрева
1012.8 1013.0
15 20.09 штиль 0 10 км гроза без осадков {дождь} 9/9 360 м
[Cb cap]
+24.0 +22.6 92 +31 +33 очень
душно
1012.0 1012.0
18 20.09 ЮЗ 2 10 км гроза, ливневой дождь 9/9 360 м
[Cb cap]
+25.5 +23.1 87 +34 +34 очень
душно
1011.1 1011.0 +32.5 14
06 21.09 ЮЗ 2 12 км 9/6 360 м
[Sc Ac trans]
+24.0 +23.0 94 +32 +32 очень
душно
1013.5 1014.0 +23.0 15
09 21.09 ЮЗ 2 14 км 6/0
[Cs]
+28.0 +23.4 76 +38 +46 очень
душно
1014.4 1014.0
12 21.09 ЮЗ 3 14 км 9/5 400 м
[Cu Sc Cs]
+30.5 +23.9 68 +42 +50 опасность
перегрева
1012.7 1013.0
15 21.09 ЮЗ 3 14 км 9/8 420 м
[Cu Sc Ci sp]
+32.5 +23.0 57 +43 +44 опасность
перегрева
1009.9 1010.0
21 21.09 ЮВ 2 12 км гроза без осадков {дождь} 9/8 330 м
[Cb cap Ac As]
+24.0 +23.0 94 +32 +32 очень
душно
1012.6 1013.0
00 22.09 ЮЗ 3 12 км гроза без осадков {дождь} 9/9 330 м
[Cb cap]
+24.0 +23.0 94 +32 +32 очень
душно
1014.0 1014.0 23
03 22.09 ЮЗ 3 10 км гроза без осадков {дождь} 9/8 330 м
[Cb cap Ac As]
+22.0 +21.2 95 +28 +28 душно 1012.7 1013.0
12 22.09 штиль 0 8000 м слабый дождь 9/9 330 м
[Sc]
+23.5 +22.5 94 +31 +34 очень
душно
1013.8 1014.0 5
15 22.09 Ю 2 12 км {дождь} 9/6 360 м
[Cu Sc Ac trans]
+26.5 +22.6 79 +35 +38 очень
душно
1010.7 1011.0
18 22.09 ЮВ 2 12 км {дождь} 9/6 400 м
[Sc Ac trans Ci sp]
+25.0 +22.6 87 +33 +33 очень
душно
1011.8 1012.0 +26.5 7
03 23.09 ЮЗ 2 12 км в посл. час дождь 9/9 300 м
[Sc]
+23.0 +21.6 92 +31 +31 очень
душно
1013.2 1013.0
06 23.09 ЮЗ 3 13 км {дождь} 9/9 330 м
[Sc]
+23.0 +21.6 92 +31 +31 очень
душно
1013.9 1014.0 +22.5 9
09 23.09 ЮЗ 3 13 км 9/9 360 м
[Sc]
+24.8 +22.1 85 +32 +33 очень
душно
1016.4 1016.0
12 23.09 ЮВ 2 13 км 9/9 400 м
[Cu Sc]
+28.2 +21.8 68 +36 +38 очень
душно
1015.0 1015.0
15 23.09 ЮЗ 1 12 км в посл. час дождь 9/9 360 м
[Cu Sc]
+28.0 +22.8 73 +37 +38 очень
душно
1013.0 1013.0
18 23.09 ЮЗ 1 12 км {дождь} 9/3 420 м
[Cu med, cong Ac trans]
+28.5 +23.2 73 +38 +38 очень
душно
1012.9 1013.0 +29.0 0.0
21 23.09 штиль 0 12 км 6/0
[Ac trans Ci sp]
+26.5 +23.4 83 +36 +36 очень
душно
1015.0 1015.0
03 24.09 штиль 0 12 км 9/4 400 м
[Sc Ac trans]
+25.0 +23.3 90 +33 +33 очень
душно
1015.0 1015.0
06 24.09 штиль 0 12 км 8/6 330 м
[Sc Ac trans]
+24.0 +23.0 94 +32 +32 очень
душно
1015.2 1015.0 +23.5 0.0
09 24.09 З 2 12 км 4/1 480 м
[Cu hum Ci sp]
+28.0 +23.7 77 +38 +47 очень
душно
1016.0 1016.0
15 24.09 З 2 12 км 6/6 400 м
[Cu Sc]
+33.5 +21.7 50 +42 +47 опасность
перегрева
1011.4 1011.0
18 24.09 Ю 1 12 км 4/4 400 м
[Cb cap]
+30.0 +22.5 64 +39 +39 очень
душно
1011.9 1012.0 +33.5
21 24.09 штиль 0 12 км зарница 6/5 400 м
[Cb cap Ci sp]
+27.0 +23.1 79 +36 +36 очень
душно
1012.8 1013.0
00 25.09 ЮЗ 2 12 км 8/0
[Cs]
+26.0 +22.9 83 +35 +35 очень
душно
1012.9 1013.0
06 25.09 ЮЗ 2 12 км 9/0
[Ac trans]
+24.5 +21.3 82 +31 +31 очень
душно
1012.9 1013.0 +24.0
09 25.09 ЮЗ 2 14 км 9/5 400 м
[Cu Sc Ac trans]
+27.0 +23.1 79 +36 +39 очень
душно
1014.9 1015.0
15 25.09 СВ 2 14 км 9/0
[Cs]
+28.5 +24.0 77 +40 +50 очень
душно
1010.2 1010.0
18 25.09 СВ 2 13 км 5/0
[Ac lent Ci sp]
+28.0 +24.2 80 +39 +39 очень
душно
1010.1 1010.0 +29.5 0.7
21 25.09 ЮЗ 1 12 км 3/0
[Ci sp]
+26.5 +23.8 85 +36 +36 очень
душно
1012.5 1013.0
00 26.09 штиль 0 12 км 6/0
[Cs]
+26.0 +24.3 90 +36 +36 очень
душно
1012.1 1012.0

 

Местоположение метеостанции Wa (Гана): широта 10.05 долгота -2.50 высота над уровнем моря 323 м.

В архиве по умолчанию представлена погода в Wa за последнюю неделю. Архивные данные за месяц целиком и за предыдущие месяцы, начиная с января 2011 года, Вы можете получить, выбрав интересующий диапазон дат из раскрывающегося списка и нажав кнопку "Ввод!".

Внимание! Время в таблицах - всемирное. Для получения местного времени необходимо прибавить поправку, которая в Wa равна 1 ч.

Смотрите также архив погоды в соседних городах и на ближайших метеорологических станциях:

Погода в Gaoua (Буркина-Фасо) (81 км)
Погода в Bole (Гана) (113 км)
Погода в Navrongo (Гана) (180 км)
Погода в Tamale (Гана) (191 км)
Погода в Po (Буркина-Фасо) (192 км)
Погода в Boromo (Буркина-Фасо) (195 км)
Погода в Bondoukou (Кот-д'Ивуар) (225 км)
Погода в Bobo-Dioulasso (Буркина-Фасо) (235 км)
Погода в Wenchi (Гана) (260 км)
Погода в Ouagadougou (Буркина-Фасо) (277 км)

Пояснения к столбцам:

Ветер - указаны скорость ветра в м/с - средняя за 10 мин, порывы в срок и между сроками (в фигурных скобках) и направление, откуда дует ветер: С - северный, СВ - северо-восточный, В - восточный, ЮВ - юго-восточный, Ю - южный, ЮЗ - юго-западный, З - западный, СЗ - северо-западный.
Видимость - горизонтальная дальность видимости в метрах или километрах. При видимости от 1 до 10 км при отсутствии осадков обычно наблюдается дымка, при ухудшении видимости до 1 км и менее - туман. В сухую погоду видимость может ухудшаться дымом, пылью или мглою.
Явления - указаны атмосферные явления, наблюдавшиеся в срок или в последний час перед сроком; фигурными скобками обозначены явления, наблюдавшиеся между сроками (за 1-3 часа до срока); квадратными скобками обозначены град или гололедные отложения с указанием их диаметра в мм.
Облачность - указаны через наклонную черту общая и нижняя облачность в баллах и высота нижней границы облаков в метрах; квадратными скобками обозначены формы облаков: Ci - перистые, Cs - перисто-слоистые, Cc - перисто-кучевые, Ac - высококучевые, As - высокослоистые, Sc - слоисто-кучевые, Ns - слоисто-дождевые, Cu - кучевые, Cb - кучево-дождевые. Подробнее классификацию облаков см. в Атласе облаков (PDF).
T - Температура воздуха - температура, измеренная на высоте 2 м над землей.
Td - Температура точки росы - температура, при понижении до которой содержащийся в воздухе водяной пар достигнет насыщения.
f - Относительная влажность воздуха - влажноcть воздуха, измеренная на высоте 2 м над землей.
Te - Эффективная температура - температура, которую ощущает одетый по сезону человек в тени. Характеристика душности погоды. При расчете учитывается влияние влажности воздуха и скорости ветра на теплоощущения человека.
Tes - Эффективная температура на солнце - температура, которую ощущает человек, с поправкой на солнечный нагрев. Характеристика знойности погоды. Зависит от высоты солнца над горизонтом, облачности и скорости ветра. Ночью, в пасмурную погоду, а также при ветре 12 м/с и более поправка равна нулю.
P - Атмосферное давление - приведенное к уровню моря атмосферное давление.
Po - Атмосферное давление - измеренное на уровне метеостанции атмосферное давление.
Tmin - Минимальная температура - минимум температуры воздуха на высоте 2 м над землей.
Tmax - Максимальная температура - максимум температуры воздуха на высоте 2 м над землей.
R - Количество осадков - Количество выпавших осадков за период времени, мм. При наведении курсора мыши на число - период времени, за который выпало указанное количество осадков.
R24 - Количество осадков - Количество выпавших осадков за 24 часа, мм.
S - Снежный покров - Высота снежного покрова, см. При наведении курсора мыши на число - состояние снежного покрова и степень покрытия местности в баллах.